Location: ??
(35.4032°N, 139.3073°E)
Time: 12:28:29
(UTC+00:00)

Cosmos 2026 Rocket - Pass Details

Date: 13 April 2024
Orbit: 938 x 1000 km, 82.9° (Epoch: 22 May)

Event Time Altitude Azimuth Distance (km) Brightness Sun altitude
Exits shadow 17:51:12 57° 182° (S) 1,142 4.1 -27.0°
Maximum altitude 17:52:37 88° 93° (E) 990 3.9 -26.7°
Drops below altitude 10° 17:58:59 10° 7° (N) 2,764 6.9 -25.7°
Sets 18:01:32 0° 7° (N) 3,722 7.6 -25.2°
